Location: Newark
(54.6833°N, 25.2833°E)
Time: 05:02:16
(UTC+00:00)

Altair - Pass Details

Date: 17 November 2019
Orbit: 1502 x 1682 km, 47.2° (Epoch: 07 December)

Event Time Altitude Azimuth Distance (km) Brightness Sun altitude
Rises 00:49:38 0° 197° (SSW) 4,635 - -42.4°
Reaches altitude 10° 00:53:26 10° 184° (S) 3,649 - -41.9°
Exits shadow 00:59:28 23° 142° (SE) 2,783 8.8 -41.1°
Maximum altitude 01:00:03 23° 137° (SE) 2,776 8.9 -41.1°
Drops below altitude 10° 01:06:42 10° 90° (E) 3,676 10.0 -40.2°
Sets 01:10:32 0° 77° (ENE) 4,679 10.9 -39.7°
